Location: Seasalter
(51.3333°N, 1.0167°E)
Time: 20:04:37
(UTC+00:00)

CZ-2C R/B - Pass Details

Date: 26 September 2023
Orbit: 783 x 869 km, 98.3° (Epoch: 09 December)

Event Time Altitude Azimuth Distance (km) Brightness Sun altitude
Exits shadow 01:28:19 27° 71° (ENE) 1,493 4.3 -35.4°
Maximum altitude 01:28:54 28° 60° (ENE) 1,474 4.3 -35.4°
Drops below altitude 10° 01:33:17 10° 3° (N) 2,389 5.7 -35.0°
Sets 01:35:55 0° 352° (N) 3,336 6.4 -34.8°
